Location: Newark
(52.0742°N, 23.6111°E)
Time: 14:29:35
(UTC+00:00)

ISS - Visible Passes

Search period start: 18 September 2020 00:00
Search period end: 28 September 2020 00:00
Orbit: 419 x 420 km, 51.6° (Epoch: 18 September)

Date Brightness Start Highest point End Pass type
(mag) Time Alt. Az. Time Alt. Az. Time Alt. Az.
18 Sep -2.3 18:05:59 10° SSW 18:08:14 22° SSE 18:08:14 22° SSE visible
19 Sep -2.0 17:19:16 10° S 17:21:31 17° SE 17:23:10 13° ESE visible
19 Sep -2.0 18:54:31 10° WSW 18:56:09 25° SW 18:56:09 25° SW visible
20 Sep -3.3 18:07:17 10° SW 18:10:29 42° SSE 18:10:54 40° SE visible
20 Sep -0.6 19:43:47 10° W 19:43:52 11° W 19:43:52 11° W visible
21 Sep -2.8 17:20:08 10° SW 17:23:11 32° SSE 17:25:31 15° E visible
21 Sep -2.4 18:56:23 10° WSW 18:58:28 35° WSW 18:58:28 35° WSW visible
22 Sep -3.8 18:09:00 10° WSW 18:12:21 68° SSE 18:12:59 52° ESE visible
22 Sep -0.5 19:45:45 10° W 19:45:57 11° W 19:45:57 11° W visible
23 Sep -3.5 17:21:39 10° WSW 17:24:58 55° SSE 17:27:25 17° E visible
23 Sep -2.2 18:58:19 10° W 19:00:22 34° W 19:00:22 34° W visible
24 Sep -3.9 18:10:52 10° W 18:14:15 84° S 18:14:44 63° E visible
24 Sep -0.4 19:47:41 10° W 19:47:42 10° W 19:47:42 10° W visible
25 Sep -3.8 17:23:25 10° WSW 17:26:48 78° S 17:29:04 19° E visible
25 Sep -1.9 19:00:13 10° W 19:02:01 29° W 19:02:01 29° W visible
26 Sep -3.9 18:12:45 10° W 18:16:09 81° S 18:16:19 77° SE visible
27 Sep -3.8 17:25:17 10° W 17:28:40 85° S 17:30:36 23° E visible
27 Sep -1.5 19:02:06 10° W 19:03:33 23° W 19:03:33 23° W visible
